Погода Karlovac

Погода Karlovac : погода сейчас, прогноз погоды и архив. Всё, что Вы хотите узнать о погоде Karlovac!

Поиск расширенной информации на нашем сайте:

Другие новости

Новости СМИ2

Главная страница сайта

Новости сайта

03.07.2017

Напоминаем, что на нашем специализированном сайте Метеоцентр.Азия вы можете получить высокодетализированные автоматические прогнозы погоды по пунктам России, СНГ и мира в авиационном формате (включающие направление и скорость ветра, видимость, явления погоды, количество и форму облачности, нижнюю и верхнюю границу облачности).


Погода Karlovac - сегодня

Время (UTC), дата Ветер
(°,м/с) 
Видим.   Явления Облачность Т
(°С)
Тd
(°С)
f(%) Тe
(°С)
Pmin
(гПа)
dP
(гПа)
Po
(мм)
O2
(г/м3)
Тmin Tmax R s Состояние
почвы
12 20.03.19 050 (СВ) 50000 м    9/4 600 м средняя 
[Cu med, cong|Ac lent]
+10.3 -3 39 +9  1032  -0.3  764  297           
15 20.03.19 040 (СВ) н/о    н/о 
+10.1 -2.8 40 +10  1032.3  764  297           
18 20.03.19 020 (С) 50000 м    10/10 1500 м 
[Sc]
+8.3 -2.5 46 +9  1033  764  299    +10.5       
21 20.03.19 050 (СВ) н/о    н/о 
+8 -4.1 42 +7  1035  766  300           
00 21.03.19 340 (С) н/о    н/о 
+5.8 -3.2 52 +7  1036.4  1.2  767  303           
03 21.03.19 300 (СЗ) 50000 м    8/4 1500 м средняя 
[Sc|Ac lent]
+2.8 -3 66 +4  1035.3  766  306           
06 21.03.19 330 (СЗ) 50000 м    ясно 
-0.4 -1.4 93 1036  0.6  766  309  -0.4        влажная 
09 21.03.19 060 (СВ) 50000 м    1/0 верхняя 
[Ci fib]
+9.7 -4.1 38 +9  1036.4  0.8  767  299           
12 21.03.19 070 (В) 50000 м    3/0 верхняя 
[Ci fib]
+13 -2.7 33 +13  1034.1  -2.1  765  295           
15 21.03.19 020 (С) н/о    н/о 
+14.1 -2.3 32 +14  1032.6  764  293           
18 21.03.19 290 (З) 50000 м    3/0 верхняя 
[Ci fib]
+8.2 -2.6 46 +9  1032.7  764  299    +14.6       
21 21.03.19 тихо ()   н/о    н/о 
+2.3 -1.6 75 +2  1034.3  0.6  765  306           
00 22.03.19 тихо ()   н/о    н/о 
-0.1 -1.6 90 -0  1034.7  0.2  765  309           
03 22.03.19 130 (ЮВ) 15000 м    1/0 верхняя 
[Ci fib]
-1.8 -2.1 98 -1  1033.7  765  310           
06 22.03.19 130 (ЮВ) 30000 м    1/0 верхняя 
[Ci fib]
-1.2 -1.5 98 -1  1034.2  0.5  765  310  -2.3        замёрзшая 
09 22.03.19 150 (ЮВ) 30000 м    1/0 средняя 
[Ac lent]
+10.5 -1.1 44 +12  1033.8  0.2  765  297           
12 22.03.19 340 (С) 50000 м    3/0 средняя, верхняя 
[Ac lent|Cs]
+15.7 -0.1 34 +17  1031.4  -2.1  764  291           
15 22.03.19 330 (СЗ) н/о    н/о 
+17.6 -2.1 26 +19  1029.5  -0.2  762  289           
18 22.03.19 тихо ()   30000 м    4/0 средняя, верхняя 
[Ac lent|Cs]
+9.8 -2.4 42 +10  1029.2  762  297    +17.5       
21 22.03.19 тихо ()   н/о    н/о 
+4.2 +0.8 79 +4  1030.1  0.3  762  302           
00 23.03.19 тихо ()   н/о    н/о 
+1.6 -0.3 87 +2  1030  -0.2  762  305           
03 23.03.19 170 (Ю) 15000 м    ясно 
+0.2 -0.6 94 +1  1029.1  761  307           
06 23.03.19 140 (ЮВ) 30000 м    ясно 
-0.2 -0.4 99 1029.1  761  307  -1.3        сухая 
09 23.03.19 050 (СВ) 40000 м    ясно 
+12.5 +1.6 47 +14  1028.8  0.3  761  293           
12 23.03.19 100 (В) 45000 м    ясно 
+18.5 +0.3 29 +19  1026.5  -2  760  287           
Время (UTC), дата Ветер
(°,м/с) 
Видим.   Явления Облачность Т
(°С)
Тd
(°С)
f(%) Тe
(°С)
Pmin
(гПа)
dP
(гПа)
Po
(мм)
O2
(г/м3)
Тmin Tmax R s Состояние
почвы

Для получения пояснительной информации подведите курсор к названию столбца.

ПОГОДА Karlovac - архив

Всё, что Вы хотите узнать о погоде Karlovac - удобно и подробно!

Выберите нужную дату (начиная с 1 января 2018* года) и нажмите кнопку "Найти".
Будут отображены архивные сводки погоды по пункту Karlovac, начиная с указанной даты.


Отображать данные в формате CSV (для использования в таблицах Excel)


Внимание! Наш архив погоды предназначен исключительно для личного некоммерческого использования в познавательных целях. Если Вам необходимы официальные справки о состоянии погоды (для производственных, юридических, коммерческих и т.п. целей), обращайтесь в органы Росгидромета.

*Примечание: данная дата относится к архиву по метеостанциям СССР (Россия, СНГ, Балтия).
Архив по метеостанциям Зарубежной Европы и Азии (кроме Китая) хранится 10 дней, по другим регионам земного шара (Китай, Африка, Америка, Австралия, Океания) - 1 день.

Karlovac - район местоположения метеостанции


Название, широта, долгота, высота метеостанции:
Karlovac 45.5°ш. 15.6°д. 117 м над ур. моря [Croatia]

Дополнительная информация

В oтличие oт бoльшинства пoгoдных сайтoв мы публикуем пoдрoбную метеoинфoрмацию в детальнoм прoфессиoнальнoм фoрмате.

Характеристики температуры и влажнoсти вoздуха измеряются на высoте 2 м в тени вдали oт зданий и деревьев.
Скoрoсть ветра измеряется на высoте 10 м (на урoвне рoста челoвека скoрoсть ветра ниже в 1.5-2 раза). Если метеoстанция нахoдится в гoрoде или в лесу, тo скoрoсть ветра занижена на 2-4 м/с пo сравнению с oткрытым местoм. Скoрoсть ветра над акватoриями крупных рек и oзёр, а также на вершинах хoлмoв на 2-5 м/с выше, чем в oбычных услoвиях.
Атмoсфернoе давление в разных тoчках местнoсти мoжет значительнo oтличаться oт давления на метеoстанции, в зависимoсти oт услoвий рельефа (при пoдъёме на 10 м давление пoнижается примернo на 1 мм рт.ст.).